User: anonymous   Login
Location: Unspecified
(0.0000°N, 0.0000°E)
Time: 00:18:44
(UTC+00:00)
Language:

Cosmos 1354 - Orbit

View from above orbital plane
View from above orbital plane
View from above satellite
View from above satellite

Ground track
Ground track

The orbit data is extracted from the following two-line orbital elements,

1 13148U 82037A   18201.54606680 +.00000013 +00000-0 +14611-4 0  9995
2 13148 074.0395 334.9137 0008520 128.3980 231.7937 14.31875170891516
Epoch (UTC): 20 July 2018 13:06:20
Eccentricity: 0.0008520
inclination: 74.0395°
perigee height: 779 km
apogee height: 791 km
right ascension of ascending node: 334.9137°
argument of perigee: 128.3980°
revolutions per day: 14.31875170
mean anomaly at epoch: 231.7937°
orbit number at epoch: 89151

The dashed part of the orbit path shows where the satellite is in the earth's shadow,  

DLR